Volver al catálogo

TITAN 34B AGENA D DEB

ActivoHEO
NORAD 23811·DEBRIS·🇺🇸 United States

Lanzado Jul 31, 1983 desde Vandenberg Space Force Base

Loading…

Próximos Pases (próximas 24 horas)

TLE

ActualizadoSource: Space-Track

Época: Sep 13, 2026, 18:08 UTC

1 23811U 83078C   26256.75579120  .00004708  00000-0  23244-2 0  9994
2 23811  63.3576  53.5226 4881983 248.9633  53.4631  5.71138283143082

Sigue TITAN 34B AGENA D DEB en tiempo real con AllMySat

Download on the App Store